Temperature
8 6 6 7 7 8 8 7 7 7 6 6 5 4 4 4 3 2 2 2 2 2 2 2 2 3 3 3 3 3 4 4 4 4 4 4 4 4 5 5 5 5 5 5
6 6 7 7 7 8 7 7 6 6 6 6 4 4 3 3 2 2 2 1 1 1 1 1 2 2 2 2 3 3 3 3 3 3 3 3 3 3 3 4 4 4 4 4
7 7 7 7 6 7 6 6 6 5 5 5 4 3 3 2 2 2 1 1 1 1 1 1 1 1 2 2 2 2 2 2 2 2 2 3 3 3 3 3 3 3 3 4
6 6 7 6 6 6 6 6 6 5 4 3 4 3 3 2 1 1 1 1 1 1 1 1 1 1 1 1 1 1 1 1 1 2 2 2 2 2 2 2 2 2 2 3
5 6 6 6 6 6 5 5 5 5 4 3 3 3 2 1 1 0 0 1 1 0 0 0 0 0 0 0 0 0 1 1 1 1 1 1 1 1 1 1 1 2 2 2
5 6 5 5 5 5 5 4 4 3 2 3 3 2 2 1 1 1 0 0 0 0 0 0 0 -0 -0 -0 -0 -0 0 0 0 0 0 0 0 0 0 0 0 1 1 1
5 5 5 5 5 5 4 4 4 3 3 3 3 2 1 0 0 0 0 0 0 0 -0 -0 -0 -0 -0 -1 -1 -1 -1 -0 -0 -1 -0 -1 -1 -1 -1 -1 -0 -0 0 0
4 4 4 4 4 4 4 4 4 4 3 3 2 2 1 -0 -0 0 0 0 -0 -0 -0 -0 -1 -1 -1 -1 -1 -1 -1 -1 -1 -1 -1 -1 -1 -1 -1 -1 -1 -1 -1 -1
4 4 4 4 4 4 4 3 3 2 1 1 1 0 0 -0 -1 -1 -0 -0 -0 -1 -1 -1 -1 -1 -1 -2 -2 -2 -2 -2 -2 -2 -2 -2 -2 -2 -2 -2 -2 -2 -2 -1
3 3 3 3 4 3 3 2 1 1 2 2 2 1 1 -0 -1 -1 -1 -1 -1 -1 -1 -1 -1 -2 -2 -2 -2 -2 -3 -3 -3 -3 -2 -2 -2 -2 -2 -2 -2 -2 -2 -2
3 2 2 2 2 2 2 2 1 0 0 1 1 1 0 -1 -1 -2 -2 -1 -1 -1 -1 -2 -2 -2 -2 -2 -3 -3 -3 -3 -3 -3 -3 -3 -3 -3 -3 -3 -3 -3 -3 -3
2 0 0 1 2 2 2 1 0 1 0 -1 -0 0 -0 -2 -1 -1 -1 -1 -1 -2 -2 -2 -2 -2 -3 -3 -3 -3 -4 -4 -4 -4 -4 -4 -3 -4 -3 -3 -3 -3 -3 -3
1 0 1 2 2 1 1 1 0 -0 -1 -2 -1 -0 -1 -2 -2 -1 -1 -2 -2 -2 -2 -2 -3 -3 -3 -3 -4 -4 -4 -4 -4 -4 -4 -4 -4 -4 -4 -4 -4 -4 -4 -4
2 -0 1 2 2 0 -0 0 -0 -0 -1 -2 -1 -1 -1 -2 -3 -2 -2 -2 -2 -3 -3 -3 -3 -4 -4 -4 -4 -5 -5 -5 -5 -5 -5 -5 -5 -5 -5 -5 -5 -4 -4 -4
1 -0 -1 -0 0 -0 -0 0 -0 -1 -1 -1 -1 -2 -2 -2 -3 -2 -2 -3 -3 -3 -4 -4 -4 -4 -5 -5 -5 -5 -5 -5 -6 -6 -5 -5 -5 -5 -5 -5 -5 -5 -5 -5
-1 -1 -1 -1 -0 -1 -0 -0 -1 -1 -1 -2 -2 -2 -3 -3 -3 -3 -3 -4 -4 -4 -5 -5 -5 -5 -6 -6 -6 -6 -6 -6 -6 -6 -6 -6 -6 -6 -6 -6 -6 -6 -5 -5
-2 -2 -2 -2 -2 -1 -1 -1 -1 -2 -3 -2 -2 -2 -4 -4 -4 -4 -4 -4 -5 -5 -5 -5 -6 -6 -6 -6 -6 -6 -6 -6 -6 -6 -7 -7 -7 -6 -6 -6 -6 -6 -6 -6
-2 -2 -3 -3 -3 -1 -0 -2 -2 -2 -3 -4 -4 -4 -4 -4 -4 -4 -4 -5 -5 -5 -6 -6 -6 -6 -6 -7 -7 -7 -7 -7 -7 -7 -7 -7 -7 -7 -7 -7 -7 -7 -6 -6
-3 -3 -3 -3 -3 -2 -2 -2 -3 -3 -4 -5 -5 -5 -5 -5 -5 -5 -5 -5 -6 -6 -6 -6 -7 -7 -7 -7 -7 -7 -7 -7 -7 -7 -7 -7 -8 -8 -7 -7 -7 -7 -7 -7
-4 -3 -3 -4 -3 -2 -1 -3 -3 -3 -4 -4 -5 -5 -5 -6 -6 -6 -5 -6 -6 -6 -7 -7 -7 -7 -7 -7 -7 -7 -7 -8 -8 -8 -8 -8 -8 -8 -8 -8 -8 -8 -8 -7
-4 -4 -4 -4 -4 -3 -3 -4 -3 -3 -3 -4 -4 -5 -5 -6 -6 -6 -6 -7 -7 -7 -7 -7 -8 -8 -8 -8 -8 -8 -8 -8 -8 -8 -8 -8 -8 -8 -8 -8 -8 -8 -8 -8
-4 -5 -5 -5 -4 -3 -4 -5 -5 -4 -4 -4 -4 -5 -5 -6 -6 -7 -7 -7 -7 -8 -8 -8 -8 -8 -8 -8 -8 -8 -8 -9 -9 -9 -9 -9 -9 -9 -9 -9 -9 -9 -9 -9
-5 -4 -5 -4 -3 -4 -5 -4 -4 -4 -4 -5 -5 -5 -6 -6 -7 -7 -8 -8 -8 -8 -8 -8 -9 -9 -9 -9 -9 -9 -9 -9 -9 -9 -9 -9 -9 -9 -9 -9 -9 -9 -9 -9
-6 -6 -6 -6 -6 -6 -5 -5 -5 -5 -5 -5 -6 -6 -6 -7 -8 -8 -8 -8 -8 -9 -9 -9 -9 -9 -9 -9 -9 -9 -9 -9 -9 -9 -9 -9 -9 -10 -10 -10 -10 -10 -10 -10
-6 -7 -6 -6 -7 -6 -6 -5 -5 -5 -6 -6 -6 -7 -7 -8 -8 -8 -8 -9 -9 -9 -9 -9 -10 -10 -10 -10 -10 -10 -10 -10 -10 -10 -10 -10 -10 -10 -10 -10 -10 -11 -10 -11
-7 -7 -6 -5 -6 -6 -6 -5 -6 -6 -6 -7 -7 -7 -8 -8 -8 -9 -9 -9 -9 -10 -10 -10 -10 -10 -10 -10 -10 -10 -10 -10 -10 -10 -10 -10 -10 -11 -11 -11 -11 -11 -11 -11
Wind_Speed
4 6 2 1 2 2 2 2 3 4 1 1 4 5 5 3 3 3 3 3 2 1 2 3 4 4 5 5 5 5 6 6 6 5 5 4 5 5 5 7 8 8 8 8
6 2 2 1 1 2 1 1 3 3 2 1 3 5 4 3 4 5 5 3 2 1 3 4 5 5 5 5 5 5 5 5 5 4 4 3 3 3 4 6 7 8 7 7
4 2 1 2 3 1 1 2 3 3 4 2 1 4 1 1 2 2 3 3 3 2 1 2 3 4 4 5 5 5 5 5 5 6 5 4 3 3 4 5 5 8 8 7
2 2 2 2 1 0 3 3 2 2 2 3 0 4 5 2 1 1 2 2 2 1 1 0 2 3 3 3 4 4 5 5 5 5 4 4 4 4 5 4 5 7 8 7
0 1 2 1 1 0 3 3 2 2 2 3 2 3 6 0 2 3 3 3 2 2 1 1 1 2 2 2 3 3 4 5 5 5 4 4 4 4 4 4 5 6 7 7
0 0 1 1 1 0 1 3 3 3 3 3 4 5 5 3 4 4 3 2 2 1 1 1 1 2 2 2 2 3 4 5 5 5 5 4 5 5 6 6 6 5 5 6
3 2 2 1 2 4 4 4 4 5 2 5 2 3 6 3 2 3 4 3 2 1 1 1 1 2 3 3 3 3 4 5 5 5 5 5 4 4 5 6 6 6 5 5
0 4 2 1 1 1 0 3 3 4 5 5 3 4 4 2 1 1 2 2 1 1 1 2 1 1 2 3 3 3 4 5 5 5 6 5 5 4 4 5 5 6 5 5
3 4 2 1 1 2 1 2 3 3 2 4 5 5 4 1 1 1 1 1 1 1 2 2 2 1 2 3 3 3 4 5 5 6 6 5 5 5 5 6 6 5 6 7
4 3 3 2 1 1 2 4 4 3 2 5 6 5 4 4 4 3 2 2 2 2 3 2 2 2 2 3 3 3 3 4 5 5 5 6 6 6 6 6 6 6 7 8
2 3 3 2 3 4 2 2 3 3 3 4 5 6 3 6 6 5 4 3 3 3 3 3 2 2 3 3 3 3 4 5 5 6 6 6 6 6 6 6 7 7 7 8
3 3 3 6 3 2 4 5 5 4 5 4 3 6 2 3 4 4 3 3 3 3 3 2 2 3 3 4 4 4 4 5 5 6 6 6 7 7 7 7 8 7 8 8
4 4 1 4 2 1 1 3 4 4 3 4 4 7 1 1 1 2 2 3 3 3 3 2 2 3 4 4 4 4 4 5 6 6 6 7 7 7 8 8 8 8 8 8
3 4 6 8 6 3 5 5 5 5 5 6 9 9 6 4 3 3 3 4 4 3 3 3 3 4 4 4 5 5 5 5 6 6 6 7 7 7 8 8 8 8 8 8
3 4 5 7 6 5 8 10 8 10 10 9 9 8 9 7 6 5 3 3 3 4 4 4 4 4 5 5 5 5 5 6 6 6 6 7 8 7 7 8 8 8 8 9
3 3 2 5 5 6 10 11 10 11 9 10 9 10 7 3 1 2 2 3 3 4 5 5 5 5 6 6 6 7 6 6 6 6 7 7 8 8 8 8 8 8 8 8
3 4 1 4 4 5 8 8 8 5 4 6 10 9 3 2 3 4 4 3 3 5 6 5 5 6 6 6 6 7 7 7 6 6 7 7 7 8 8 9 9 8 8 8
6 5 2 2 2 6 6 1 4 5 4 5 5 4 3 4 3 3 3 2 3 5 5 5 5 6 6 6 6 6 6 7 6 6 7 7 7 8 8 8 9 8 8 8
4 6 3 2 4 8 6 2 3 4 4 3 5 4 3 1 1 2 2 1 3 4 4 4 5 5 6 7 7 7 6 6 6 7 7 7 8 8 8 9 9 8 8 8
3 4 4 3 4 7 5 1 1 2 4 2 3 4 2 1 2 4 3 4 4 4 4 4 5 5 6 7 6 6 6 6 7 8 8 8 7 8 8 9 9 8 8 8
3 2 4 6 6 8 4 1 2 3 5 1 2 3 3 4 5 4 4 4 3 4 5 5 5 5 6 7 6 6 6 6 7 8 8 8 7 7 7 7 7 7 8 8
7 6 6 5 6 8 2 5 5 5 1 1 1 2 3 4 3 3 3 4 4 5 5 5 5 6 6 6 6 7 7 7 7 7 8 8 8 7 7 7 7 7 7 7
7 7 6 8 7 2 4 4 3 1 2 1 1 2 2 3 3 3 3 3 4 5 5 5 5 6 6 6 5 6 8 7 7 8 8 8 8 7 6 6 7 6 6 6
3 2 3 4 6 3 3 2 1 1 2 1 1 1 1 2 3 3 4 4 4 5 5 5 5 6 7 7 7 6 7 7 6 7 8 8 7 7 6 6 6 5 6 6
4 4 3 4 4 2 3 4 3 2 1 1 1 1 2 2 3 3 3 4 4 5 5 5 5 6 7 7 7 8 7 6 6 7 7 7 7 6 6 6 5 6 5 6
3 4 5 6 5 4 4 3 2 2 2 2 2 2 2 2 3 3 4 3 4 4 5 5 6 7 7 7 7 7 7 6 6 7 7 6 6 6 6 6 7 10 10 12
Wind_Direction
42 64 68 245 214 189 172 183 256 261 263 241 225 242 248 222 163 166 154 130 112 80 37 38 29 26 34 27 26 25 22 14 16 12 4 357 351 345 355 2 2 3 1 358
51 43 276 311 38 96 121 211 272 295 336 277 248 262 257 198 178 170 167 162 147 85 33 25 21 20 28 24 17 17 16 12 12 6 351 330 321 323 343 349 352 356 356 353
134 233 315 71 43 57 315 205 236 272 328 329 307 303 258 150 107 112 135 147 142 141 111 19 14 12 17 17 7 8 3 5 4 3 3 356 354 343 355 349 346 348 343 342
87 332 43 73 37 92 261 241 232 255 340 291 257 285 264 203 135 147 170 167 173 170 168 24 4 3 1 356 356 0 0 1 1 6 11 10 2 341 327 328 328 334 337 334
196 360 48 53 284 271 237 280 262 249 199 286 251 226 281 218 230 234 217 211 208 207 194 236 323 335 341 348 356 354 358 360 1 3 4 3 351 331 323 329 332 331 334 333
168 339 115 210 305 315 307 359 18 50 85 273 228 196 267 243 233 221 211 211 208 216 230 283 319 350 352 355 360 2 3 359 358 359 357 354 341 335 336 335 331 327 328 331
346 337 355 38 34 16 43 55 11 349 340 256 252 211 249 266 261 197 189 199 210 212 235 272 310 342 342 346 349 355 359 351 349 350 345 337 329 326 324 323 321 319 321 320
337 289 278 15 135 190 271 130 161 238 259 287 313 245 255 291 321 115 144 162 168 243 248 264 276 297 316 328 340 344 344 340 340 341 334 325 323 320 314 314 312 308 304 302
179 253 324 4 35 135 142 183 172 158 269 274 270 280 291 180 34 61 86 91 273 271 278 283 285 301 315 320 323 321 326 330 331 332 329 323 322 318 312 311 310 307 308 309
154 250 282 306 37 16 149 150 105 143 242 272 281 262 244 223 227 231 233 243 269 282 286 295 304 305 311 307 314 323 323 320 320 324 323 327 316 310 310 312 308 305 306 309
133 182 296 326 209 205 161 170 161 174 194 210 273 269 228 209 206 204 224 242 252 271 278 286 295 297 304 320 324 325 325 327 326 323 318 318 313 311 314 311 307 306 307 308
139 134 251 255 264 235 188 189 161 185 241 214 244 270 283 185 190 194 223 259 268 276 278 282 292 308 318 326 320 318 320 322 319 317 316 314 312 313 313 310 309 310 307 307
139 130 329 326 325 349 231 209 184 167 172 205 225 263 302 99 180 237 246 276 289 298 302 307 312 316 310 314 312 310 314 313 313 315 312 311 312 313 310 308 309 309 308 306
131 169 201 228 241 203 242 242 209 185 215 235 232 251 272 269 262 267 271 281 291 298 297 300 303 307 309 311 308 305 308 308 312 312 308 307 306 304 304 305 307 307 307 304
135 213 236 257 267 249 249 250 227 219 218 225 247 243 256 253 242 246 259 282 302 311 310 300 301 302 308 312 312 309 303 307 309 307 306 303 303 302 305 307 306 306 307 306
152 204 250 275 273 270 270 261 242 235 232 237 254 265 266 264 238 266 266 276 294 303 307 306 309 310 310 311 311 313 306 302 303 301 300 303 307 308 307 307 307 308 306 306
174 164 203 266 309 329 273 246 218 213 211 205 232 245 258 270 255 250 250 252 275 293 304 307 306 304 303 303 304 303 302 301 301 300 302 305 307 308 307 308 308 305 305 306
164 159 179 263 353 253 248 216 191 200 238 221 226 247 241 253 262 249 218 226 275 298 304 302 302 304 303 301 303 302 302 306 301 300 302 305 308 307 307 306 305 304 304 303
161 157 170 188 252 273 285 252 180 194 261 236 228 253 278 317 320 271 231 259 277 284 291 290 294 297 303 306 307 308 307 311 309 304 303 304 305 304 305 305 304 304 304 304
85 126 157 175 225 252 256 217 160 103 276 250 204 234 248 99 280 270 299 318 311 313 312 310 310 312 312 310 313 312 310 311 310 309 305 300 300 299 300 300 301 303 303 302
146 160 193 206 233 261 254 207 117 178 256 235 197 213 205 212 232 267 303 313 317 319 319 322 322 321 315 316 321 316 312 306 305 310 311 305 301 297 295 297 301 302 305 305
179 182 197 183 213 253 189 136 180 222 260 187 207 214 222 243 267 291 305 311 320 324 325 327 326 323 322 324 327 322 315 311 312 314 312 310 306 304 308 303 304 305 306 306
199 195 192 196 215 241 162 179 206 187 198 230 231 250 233 255 277 300 303 305 312 316 318 322 320 321 325 327 326 317 312 313 316 315 313 314 315 310 308 304 305 308 309 310
241 198 188 237 256 245 219 226 279 240 214 239 251 258 236 253 280 295 302 309 313 317 319 322 324 324 323 325 321 310 311 314 314 313 314 318 319 317 314 313 312 311 311 311
214 179 202 244 267 291 265 240 238 251 227 250 292 262 243 251 283 286 293 303 308 316 319 320 318 316 314 319 318 320 319 316 313 313 315 319 320 316 317 317 314 313 305 306
194 187 195 234 226 210 241 236 220 211 228 227 231 275 278 255 266 281 286 288 296 306 312 317 316 315 315 318 319 321 322 320 316 318 320 319 319 319 322 322 323 326 326 324
Height
1533 1538 1543 1543 1541 1541 1542 1544 1546 1545 1543 1544 1545 1544 1542 1542 1543 1542 1543 1543 1543 1543 1543 1543 1541 1541 1540 1538 1537 1536 1534 1533 1532 1530 1529 1527 1526 1525 1524 1523 1523 1522 1521 1521
1540 1544 1542 1540 1540 1541 1542 1544 1546 1545 1543 1544 1544 1543 1540 1540 1540 1540 1541 1542 1542 1542 1542 1541 1540 1539 1538 1537 1536 1535 1533 1532 1530 1529 1527 1526 1524 1523 1522 1521 1520 1519 1518 1518
1541 1543 1540 1541 1542 1542 1544 1545 1545 1546 1545 1543 1545 1543 1541 1540 1540 1541 1541 1541 1541 1541 1541 1540 1539 1538 1537 1536 1535 1533 1532 1531 1529 1527 1526 1524 1522 1521 1519 1518 1517 1516 1515 1515
1543 1542 1541 1542 1543 1542 1544 1542 1542 1544 1548 1550 1547 1549 1541 1540 1541 1540 1540 1540 1539 1539 1539 1539 1538 1537 1536 1535 1534 1532 1531 1529 1527 1526 1524 1521 1519 1518 1516 1515 1513 1513 1512 1511
1544 1542 1542 1542 1543 1542 1543 1541 1542 1543 1547 1550 1549 1551 1543 1540 1540 1539 1539 1538 1538 1538 1538 1538 1537 1536 1535 1534 1532 1531 1529 1528 1526 1524 1522 1520 1518 1516 1514 1512 1511 1510 1509 1508
1543 1542 1542 1542 1542 1542 1542 1542 1543 1546 1550 1550 1544 1549 1542 1541 1537 1536 1537 1537 1537 1537 1537 1536 1536 1535 1534 1533 1531 1529 1528 1526 1524 1522 1520 1518 1516 1514 1512 1509 1508 1506 1505 1504
1545 1544 1543 1542 1543 1543 1544 1548 1552 1551 1554 1547 1541 1544 1542 1538 1535 1534 1535 1536 1536 1536 1535 1535 1534 1533 1532 1531 1529 1528 1526 1523 1521 1520 1518 1516 1514 1511 1509 1506 1505 1503 1501 1499
1549 1549 1544 1543 1544 1546 1546 1548 1555 1556 1553 1549 1544 1543 1541 1537 1534 1534 1534 1535 1535 1535 1535 1534 1533 1532 1531 1529 1527 1525 1523 1521 1519 1517 1515 1513 1511 1508 1506 1504 1502 1500 1497 1496
1549 1548 1545 1544 1543 1544 1546 1550 1550 1557 1558 1558 1548 1545 1539 1536 1535 1534 1534 1534 1534 1534 1533 1532 1531 1531 1529 1527 1525 1523 1521 1519 1516 1514 1512 1510 1508 1505 1503 1500 1499 1497 1495 1493
1546 1551 1547 1546 1544 1545 1546 1548 1556 1557 1556 1553 1546 1544 1539 1536 1535 1534 1534 1533 1533 1532 1532 1531 1530 1528 1527 1525 1523 1521 1519 1516 1514 1511 1509 1507 1504 1502 1500 1497 1495 1493 1491 1489
1546 1551 1550 1548 1546 1546 1547 1549 1551 1556 1557 1555 1553 1542 1533 1532 1531 1532 1532 1532 1531 1531 1530 1529 1528 1526 1525 1523 1520 1518 1516 1513 1511 1508 1506 1503 1501 1499 1496 1493 1491 1489 1486 1484
1546 1552 1554 1549 1545 1544 1544 1545 1550 1554 1554 1556 1554 1544 1530 1529 1529 1530 1531 1530 1530 1529 1528 1526 1525 1523 1522 1519 1517 1515 1513 1510 1507 1505 1502 1500 1497 1495 1492 1489 1487 1484 1482 1480
1545 1551 1552 1546 1548 1547 1545 1544 1546 1550 1553 1556 1554 1541 1530 1529 1529 1529 1529 1528 1527 1527 1525 1524 1522 1520 1518 1516 1514 1512 1510 1507 1504 1501 1499 1496 1493 1491 1488 1485 1482 1480 1477 1475
1542 1548 1549 1544 1538 1543 1545 1543 1543 1546 1551 1550 1543 1534 1530 1529 1528 1528 1527 1526 1525 1524 1523 1522 1519 1517 1516 1513 1511 1509 1506 1504 1501 1498 1495 1492 1489 1487 1484 1481 1478 1475 1472 1470
1541 1546 1545 1542 1540 1540 1539 1537 1538 1540 1539 1540 1532 1531 1526 1525 1525 1525 1524 1524 1523 1522 1520 1519 1517 1515 1513 1510 1508 1505 1502 1500 1497 1494 1491 1488 1485 1482 1480 1477 1473 1470 1467 1465
1541 1544 1544 1542 1538 1537 1535 1530 1532 1532 1532 1532 1530 1528 1522 1522 1522 1522 1522 1521 1520 1519 1518 1516 1514 1512 1509 1507 1504 1501 1498 1495 1493 1489 1487 1484 1481 1478 1475 1472 1469 1466 1463 1460
1541 1543 1545 1543 1540 1538 1533 1526 1526 1527 1526 1527 1527 1523 1521 1522 1521 1520 1519 1518 1518 1516 1515 1513 1510 1508 1506 1503 1500 1497 1494 1491 1488 1485 1483 1480 1477 1474 1471 1468 1465 1461 1458 1455
1539 1541 1545 1546 1545 1540 1524 1521 1521 1523 1523 1522 1521 1520 1519 1519 1518 1518 1517 1516 1515 1513 1511 1509 1507 1504 1502 1499 1496 1493 1490 1487 1484 1481 1479 1476 1473 1470 1467 1464 1461 1457 1454 1451
1534 1538 1544 1546 1545 1534 1523 1520 1520 1522 1521 1519 1519 1518 1518 1517 1517 1515 1514 1514 1512 1511 1508 1506 1504 1501 1498 1495 1492 1489 1486 1483 1480 1477 1475 1472 1469 1466 1462 1459 1456 1453 1450 1446
1534 1536 1541 1544 1541 1531 1519 1518 1517 1520 1521 1516 1516 1516 1516 1516 1518 1514 1512 1510 1509 1507 1505 1502 1500 1497 1495 1491 1488 1485 1482 1479 1476 1473 1471 1468 1465 1462 1459 1455 1452 1449 1446 1442
1536 1538 1540 1541 1539 1526 1518 1517 1518 1523 1517 1514 1513 1513 1514 1514 1514 1512 1509 1507 1506 1504 1501 1499 1496 1494 1491 1488 1485 1481 1478 1475 1473 1470 1467 1464 1461 1458 1455 1452 1449 1445 1442 1439
1529 1534 1537 1537 1537 1525 1515 1516 1518 1515 1512 1512 1511 1511 1511 1510 1509 1508 1506 1504 1502 1500 1498 1496 1493 1490 1488 1484 1481 1478 1475 1472 1469 1466 1463 1460 1457 1454 1451 1448 1445 1442 1438 1435
1523 1521 1521 1522 1518 1512 1511 1510 1511 1511 1510 1510 1510 1509 1509 1507 1506 1505 1503 1501 1500 1498 1495 1493 1490 1487 1484 1481 1478 1475 1472 1469 1466 1463 1460 1457 1453 1451 1448 1445 1441 1438 1435 1432
1517 1515 1517 1516 1511 1509 1509 1509 1509 1508 1508 1508 1508 1507 1506 1505 1503 1502 1500 1498 1496 1494 1492 1490 1487 1484 1481 1478 1475 1472 1469 1466 1463 1460 1457 1454 1450 1447 1444 1442 1439 1436 1432 1430
1511 1512 1513 1512 1508 1507 1506 1506 1506 1506 1506 1505 1505 1505 1503 1502 1501 1499 1497 1495 1494 1491 1489 1487 1484 1481 1478 1475 1472 1469 1466 1463 1460 1457 1454 1451 1448 1445 1441 1439 1436 1433 1431 1429
1507 1508 1509 1506 1503 1504 1503 1503 1503 1503 1503 1502 1502 1501 1501 1499 1498 1496 1494 1493 1491 1488 1486 1484 1481 1478 1475 1472 1469 1466 1463 1460 1458 1455 1452 1449 1446 1442 1439 1436 1433 1431 1429 1426